[[{"header":{"parameterUnit":"m.s-1","parameterCategory":2,"la1":30.2991,"la2":30.254,"lo1":-89.0895,"lo2":-89.0444,"dy":0.0017,"dx":0.0017,"nx":28,"ny":28,"refTime":"2024-05-27T21:00:00:Z","depth":"0","parameterNumber":2,"parameterNumberName":"U-component_of_CURRENTS"},"data":[0,0,0,0,0,0,0,0,0,0,0,0,0,0,0,0,0,0,0,0,0,0,0,0,0,0,0,0,0,0,0,0,0,0,0,0,0,0,0,0,0,0,0,0,0,0,0,0,0,0,0,0,0,0,0,0,0,0,0.2732,0.2733,0,0.2812,0.2813,0.2813,0.2808,0.2807,0.2806,0.2806,0.2843,0.2845,0.2846,0,0,0,0,0,0,0,0,0,0,0,0,0,0.2591,0.2594,0.2732,0.2733,0.2734,0.2812,0.2813,0.2814,0.2809,0.2807,0.2806,0.2805,0.2842,0.2844,0.2847,0,0,0,0,0,0,0,0,0,0,0,0,0,0.2658,0.2594,0.2732,0.2743,0.2745,0.2812,0.2813,0.2814,0.2809,0.2807,0.2806,0.2805,0.2841,0.2844,0.2847,0.2893,0,0,0.2856,0.2857,0,0,0,0,0,0,0,0,0.2654,0.2663,0.274,0.2742,0.2745,0.2801,0.2777,0.2839,0.2809,0.2782,0.2806,0.2804,0.2827,0.2831,0.2847,0.2895,0.2897,0.2856,0.2858,0.2859,0.286,0,0,0,0,0,0,0,0.2649,0.2659,0.2761,0.2742,0.2744,0.275,0.2757,0.2789,0.2809,0.2784,0.2785,0.2798,0.2828,0.2844,0.2848,0.2897,0.2856,0.2858,0.286,0.2861,0.2973,0.2974,0,0,0,0,0,0,0.2645,0.2655,0.2759,0.2764,0.2697,0.2753,0.2762,0.2782,0.281,0.2814,0.2799,0.2797,0.284,0.2844,0.2849,0.2879,0.2859,0.2861,0.2863,0.2972,0.2973,0.2975,0,0,0,0,0,0,0.2642,0.2654,0.2756,0.2712,0.2726,0.2757,0.2781,0.2785,0.2799,0.2822,0.2824,0.2809,0.2839,0.2845,0.2875,0.2881,0.2863,0.2865,0.297,0.2972,0.2974,0.2956,0,0,0,0,0,0,0.2638,0.2653,0.2668,0.2713,0.2728,0.2795,0.2783,0.2787,0.281,0.2809,0.2831,0.2833,0.2838,0.2871,0.2878,0.2885,0.2867,0.2969,0.2971,0.2974,0.2955,0.2957,0.2959,0,0,0,0,0,0.2633,0.2661,0.2669,0.2681,0.2748,0.2796,0.2805,0.282,0.2812,0.2826,0.2837,0.2832,0.2891,0.2874,0.2882,0.289,0.2968,0.2971,0.2973,0.2954,0.2957,0.2959,0,0,0,0,0,0,0.2609,0.2665,0.2674,0.2718,0.2753,0.2796,0.282,0.2825,0.2848,0.2845,0.2852,0.2856,0.2885,0.29,0.2881,0.2932,0.2928,0.2933,0.2911,0.2914,0.2916,0.2943,0.287,0,0,0,0,0,0.2613,0.2649,0.2695,0.2732,0.2753,0.2786,0.2808,0.2819,0.2845,0.2853,0.2866,0.2886,0.2908,0.2918,0.2944,0.2976,0.3048,0.2987,0.2989,0.2991,0.302,0.3141,0.3157,0.2984,0.2984,0.2984,0,0,0.2615,0.2651,0.2672,0.2729,0.2761,0.2796,0.2795,0.2835,0.2854,0.2856,0.2885,0.2897,0.292,0.2949,0.2963,0.2957,0.3077,0.2994,0.2995,0.3025,0.3146,0.3163,0.3178,0.2986,0.2986,0.2986,0,0,0.2638,0.2671,0.2707,0.2737,0.2787,0.281,0.282,0.2863,0.2872,0.2905,0.2907,0.293,0.2961,0.298,0.2991,0.3029,0.3087,0.3028,0.3055,0.317,0.3186,0.3201,0.331,0.3335,0.3024,0.3024,0.3024,0,0.2636,0.2688,0.2723,0.276,0.2787,0.2815,0.2848,0.2871,0.2911,0.2925,0.2911,0.2973,0.2981,0.3025,0.303,0.3033,0.3114,0.3034,0.3174,0.319,0.3205,0.3315,0.3342,0.3024,0.3024,0.3024,0.3024,0,0.2689,0.272,0.2747,0.2801,0.283,0.2869,0.2901,0.2925,0.2934,0.295,0.2993,0.3014,0.3053,0.3047,0.3048,0.3146,0.3174,0.3164,0.3166,0.3222,0.3333,0.3362,0.3023,0.3023,0.3023,0.3024,0,0,0.2701,0.2771,0.2774,0.2792,0.2853,0.2878,0.2919,0.2963,0.2994,0.3014,0.3065,0.3084,0.3099,0.3118,0.3123,0.3208,0.3367,0.3233,0.324,0.334,0.3643,0.3608,0.3636,0.3388,0.3393,0.3397,0.3676,0,0.273,0.2785,0.2819,0.286,0.289,0.2924,0.296,0.2995,0.3029,0.3084,0.3107,0.3162,0.3124,0.3157,0.3231,0.3353,0.3445,0.3294,0.3578,0.3587,0.3546,0.3669,0.3543,0.3777,0.3704,0.3709,0.3713,0,0.2765,0.2795,0.2839,0.2883,0.2901,0.2928,0.299,0.3028,0.3104,0.3136,0.319,0.3231,0.3348,0.3311,0.3548,0.3462,0.356,0.3638,0.3651,0.3651,0.3606,0.3712,0.3833,0.369,0.3758,0.3754,0.3751,0,0.2743,0.2802,0.2831,0.2849,0.2911,0.2933,0.2968,0.3036,0.3096,0.3192,0.3274,0.3369,0.349,0.3608,0.3759,0.3687,0.4042,0.3958,0.4013,0.4011,0.3979,0.3966,0.3996,0.4141,0.4141,0.414,0.4139,0,0.2755,0.2774,0.2819,0.2832,0.2876,0.2915,0.2983,0.303,0.3141,0.3249,0.3309,0.3449,0.3587,0.3782,0.3851,0.4055,0.4128,0.4071,0.41,0.3966,0.3949,0.3881,0.3812,0.415,0.4148,0.4146,0.4144,0,0.2736,0.2761,0.2797,0.2849,0.2868,0.2896,0.3006,0.308,0.3174,0.3336,0.3393,0.3601,0.3852,0.3978,0.4231,0.422,0.4265,0.4415,0.4244,0.4246,0.4078,0.4014,0.4012,0.3901,0.4511,0.4512,0.4513,0,0.2742,0.2758,0.2804,0.2843,0.2872,0.2929,0.3,0.3084,0.3186,0.3438,0.3544,0.3823,0.3988,0.4323,0.44,0.4539,0.4366,0.4478,0.4285,0.4101,0.4052,0.3857,0.3747,0.4248,0.4247,0.4246,0.4245,0,0.2775,0.2784,0.2823,0.2888,0.2949,0.3,0.3102,0.317,0.3316,0.3456,0.3681,0.3825,0.4155,0.4254,0.4439,0.449,0.4239,0.4456,0.433,0.392,0.3654,0.3548,0.4026,0.4235,0.4236,0.4237,0.4237,0.4238,0.2824,0.2849,0.2906,0.2954,0.3021,0.3057,0.3062,0.3194,0.3305,0.3472,0.3689,0.3841,0.4053,0.4281,0.4308,0.4244,0.4203,0.4111,0.408,0.3921,0.3701,0.415,0.4331,0.4332,0.4334,0.4335,0.4336,0,0.2876,0.2905,0.2983,0.3014,0.3048,0.3065,0.3134,0.3115,0.3187,0.3403,0.3546,0.372,0.3827,0.394,0.4002,0.3883,0.3678,0.3779,0.3469,0.3401,0.3887,0.3757,0.374,0.374,0.3741,0.3741,0.3741,0.3741,0.2913,0.2969,0.2982,0.3018,0.3029,0.2988,0.2968,0.2958,0.3041,0.3127,0.3217,0.3359,0.3581,0.3718,0.3636,0.3558,0.3262,0.3163,0.3119,0.3442,0.3467,0.3491,0.3349,0.3248,0.3247,0.2486,0.2481,0.2476]},{"header":{"parameterUnit":"m.s-1","parameterCategory":2,"la1":30.2991,"la2":30.254,"lo1":-89.0895,"lo2":-89.0444,"dy":0.0017,"dx":0.0017,"nx":28,"ny":28,"refTime":"2024-05-27T21:00:00:Z","depth":"0","parameterNumber":3,"parameterNumberName":"V-component_of_CURRENTS"},"data":[0,0,0,0,0,0,0,0,0,0,0,0,0,0,0,0,0,0,0,0,0,0,0,0,0,0,0,0,0,0,0,0,0,0,0,0,0,0,0,0,0,0,0,0,0,0,0,0,0,0,0,0,0,0,0,0,0,0,-0.0302,-0.0303,0,-0.0423,-0.0425,-0.0426,-0.0464,-0.0464,-0.0463,-0.0462,-0.0603,-0.0607,-0.0612,0,0,0,0,0,0,0,0,0,0,0,0,0,-0.0138,-0.014,-0.0302,-0.0304,-0.0305,-0.0423,-0.0425,-0.0427,-0.0464,-0.0464,-0.0463,-0.0462,-0.0602,-0.0607,-0.0612,0,0,0,0,0,0,0,0,0,0,0,0,0,-0.023,-0.0141,-0.0302,-0.0337,-0.0342,-0.0423,-0.0425,-0.0427,-0.0465,-0.0464,-0.0463,-0.0462,-0.06,-0.0606,-0.0613,-0.0673,0,0,-0.0633,-0.0636,0,0,0,0,0,0,0,0,-0.0224,-0.0236,-0.0331,-0.0335,-0.034,-0.0427,-0.0418,-0.051,-0.0465,-0.0419,-0.0462,-0.0461,-0.0546,-0.0557,-0.0583,-0.0679,-0.0685,-0.0633,-0.0637,-0.064,-0.0642,0,0,0,0,0,0,0,-0.0218,-0.0231,-0.0351,-0.0332,-0.0338,-0.0359,-0.0371,-0.0436,-0.0488,-0.0423,-0.0426,-0.0438,-0.0549,-0.0577,-0.0587,-0.0687,-0.0633,-0.0639,-0.0643,-0.0646,-0.0797,-0.0797,0,0,0,0,0,0,-0.0201,-0.0225,-0.0347,-0.0355,-0.0278,-0.0362,-0.0376,-0.0401,-0.0487,-0.0498,-0.0439,-0.0439,-0.0566,-0.0579,-0.0592,-0.062,-0.064,-0.0646,-0.065,-0.0796,-0.0797,-0.0797,0,0,0,0,0,0,-0.0197,-0.0211,-0.0342,-0.0291,-0.0309,-0.0366,-0.0394,-0.0404,-0.0431,-0.0498,-0.051,-0.0455,-0.0566,-0.0583,-0.0644,-0.0627,-0.0649,-0.0655,-0.0796,-0.0796,-0.0797,-0.0707,0,0,0,0,0,0,-0.0192,-0.021,-0.0229,-0.029,-0.0311,-0.0397,-0.0395,-0.0407,-0.044,-0.0442,-0.0517,-0.0529,-0.0566,-0.0634,-0.065,-0.0637,-0.066,-0.0796,-0.0796,-0.0797,-0.071,-0.0704,-0.07,0,0,0,0,0,-0.0186,-0.0226,-0.023,-0.0245,-0.0334,-0.0398,-0.0412,-0.0448,-0.0441,-0.0466,-0.0502,-0.0527,-0.0646,-0.064,-0.0659,-0.0647,-0.0796,-0.0796,-0.0797,-0.0713,-0.0706,-0.07,0,0,0,0,0,0,-0.0179,-0.0235,-0.024,-0.0298,-0.0341,-0.0404,-0.0437,-0.0449,-0.0499,-0.0498,-0.0544,-0.0561,-0.0606,-0.0647,-0.0639,-0.0691,-0.0719,-0.0723,-0.0649,-0.0643,-0.0638,-0.0589,-0.0666,0,0,0,0,0,-0.0181,-0.0219,-0.027,-0.0317,-0.0336,-0.0381,-0.0411,-0.0432,-0.048,-0.05,-0.0544,-0.0588,-0.0625,-0.0649,-0.0703,-0.0743,-0.0716,-0.0744,-0.0738,-0.0733,-0.0707,-0.0637,-0.062,-0.0797,-0.0797,-0.0797,0,0,-0.0193,-0.0228,-0.0251,-0.0316,-0.0352,-0.0372,-0.0398,-0.0447,-0.0451,-0.051,-0.054,-0.0585,-0.0636,-0.067,-0.0692,-0.0699,-0.0673,-0.0734,-0.0729,-0.0705,-0.0635,-0.0617,-0.0601,-0.0797,-0.0797,-0.0797,0,0,-0.0217,-0.0262,-0.0285,-0.0313,-0.036,-0.0387,-0.0394,-0.045,-0.0464,-0.0506,-0.053,-0.0553,-0.0639,-0.0645,-0.0662,-0.0664,-0.0654,-0.0691,-0.0616,-0.0548,-0.0531,-0.0516,-0.0462,-0.0443,-0.0678,-0.0678,-0.0678,0,-0.0222,-0.0249,-0.0305,-0.032,-0.0326,-0.0381,-0.0381,-0.0417,-0.048,-0.0469,-0.0506,-0.0552,-0.0612,-0.0593,-0.0597,-0.0646,-0.0609,-0.0632,-0.0534,-0.0519,-0.0505,-0.0453,-0.0433,-0.0674,-0.0674,-0.0675,-0.0675,0,-0.0244,-0.0257,-0.0277,-0.0296,-0.0321,-0.0342,-0.0375,-0.0395,-0.0413,-0.0423,-0.0424,-0.0488,-0.049,-0.0526,-0.0571,-0.0502,-0.0509,-0.0538,-0.0536,-0.0481,-0.0432,-0.0412,-0.0668,-0.0669,-0.067,-0.0671,0,0,-0.0253,-0.028,-0.0278,-0.0252,-0.0297,-0.0308,-0.032,-0.0319,-0.027,-0.0339,-0.026,-0.0351,-0.0351,-0.037,-0.0412,-0.0376,-0.0272,-0.0411,-0.041,-0.0331,-0.0112,-0.0164,-0.0148,-0.027,-0.0266,-0.0263,-0.0117,0,-0.0234,-0.0224,-0.0251,-0.0221,-0.0206,-0.0236,-0.0222,-0.0227,-0.0229,-0.0176,-0.0211,-0.0174,-0.0299,-0.0266,-0.0256,-0.025,-0.0216,-0.0309,-0.02,-0.0197,-0.0227,-0.0125,-0.0157,-0.0033,-0.0098,-0.0094,-0.0092,0,-0.0213,-0.0205,-0.0164,-0.0123,-0.0118,-0.0104,-0.0042,-0.0038,0.0004,0.0015,0.0042,0.0027,0.0069,-0.0037,0.0011,-0.0035,-0.0068,-0.0085,-0.008,-0.0139,-0.0211,-0.0102,0.0005,-0.0237,-0.0062,-0.0064,-0.0066,0,-0.0133,-0.0125,-0.0074,-0.0067,-0.005,-0.0013,0.0004,0.0038,0.0108,0.0176,0.0273,0.0266,0.0352,0.0295,0.0221,0.0148,0.0289,0.0189,0.0107,0.0102,0.0091,0.0078,0.0003,0.0233,0.0233,0.0232,0.0232,0,-0.0071,-0.0025,-0.0021,0.0013,0.0111,0.0084,0.0211,0.0225,0.0321,0.0478,0.0408,0.0565,0.0449,0.0492,0.0351,0.0317,0.04,0.0161,0.0156,0.0114,0.0103,-0.01,-0.0214,0.0238,0.0236,0.0235,0.0234,0,0.0033,0.0023,0.0099,0.0133,0.016,0.0241,0.0358,0.0466,0.0523,0.0745,0.0798,0.0868,0.0925,0.0774,0.074,0.0545,0.0353,0.042,0.0366,0.0349,-0.0016,-0.0123,-0.0136,-0.0229,0.0362,0.0361,0.0361,0,0.0095,0.0141,0.0214,0.0293,0.0324,0.0432,0.0534,0.058,0.0722,0.0957,0.1112,0.1217,0.1326,0.1215,0.0906,0.0676,0.0433,0.0453,0.0274,-0.0002,-0.0124,-0.0213,-0.0298,0.0299,0.0299,0.0298,0.0298,0,0.0234,0.0259,0.0327,0.0474,0.0591,0.0724,0.0874,0.1007,0.113,0.1321,0.1602,0.1705,0.1591,0.1375,0.1006,0.079,0.0274,0.0432,0.019,-0.0131,-0.0266,-0.037,0.0148,0.0293,0.0294,0.0294,0.0294,0.0295,0.0365,0.0447,0.0544,0.0687,0.0826,0.1018,0.1154,0.1338,0.158,0.1868,0.1944,0.2101,0.1698,0.1201,0.0912,0.0245,0.0271,-0.001,-0.0096,-0.0146,-0.0306,0.0183,0.0278,0.0278,0.0278,0.0278,0.0279,0,0.0527,0.0609,0.0758,0.0931,0.1105,0.1136,0.139,0.1539,0.1837,0.2075,0.2278,0.2111,0.1617,0.1055,0.0213,-0.0223,-0.0396,-0.0476,-0.0627,-0.0673,-0.0191,-0.0276,-0.0349,-0.0349,-0.0349,-0.0348,-0.0348,-0.0348,0.063,0.0789,0.0847,0.1142,0.127,0.1503,0.1646,0.1874,0.2054,0.2309,0.2358,0.2364,0.1883,0.0458,-0.0543,-0.0775,-0.1065,-0.1102,-0.1235,-0.0969,-0.0935,-0.0902,-0.1013,-0.1239,-0.124,-0.1708,-0.1713,-0.1717]}],[{"header":{"parameterUnit":"m.s-1","parameterCategory":2,"la1":30.2991,"la2":30.254,"lo1":-89.0895,"lo2":-89.0444,"dy":0.0017,"dx":0.0017,"nx":28,"ny":28,"refTime":"2024-05-27T21:00:00:Z","depth":"2","parameterNumber":2,"parameterNumberName":"U-component_of_CURRENTS"},"data":[0,0,0,0,0,0,0,0,0,0,0,0,0,0,0,0,0,0,0,0,0,0,0,0,0,0,0,0,0,0,0,0,0,0,0,0,0,0,0,0,0,0,0,0,0,0,0,0,0,0,0,0,0,0,0,0,0,0,0.2083,0.2083,0,0.2054,0.2054,0.2054,0.2097,0.2099,0.21,0.2102,0.2088,0.2086,0.2085,0,0,0,0,0,0,0,0,0,0,0,0,0,0.2115,0.2114,0.2083,0.2083,0.2082,0.2054,0.2054,0.2053,0.2097,0.2099,0.2101,0.2103,0.2089,0.2087,0.2084,0,0,0,0,0,0,0,0,0,0,0,0,0,0.2095,0.2114,0.2083,0.2101,0.2103,0.2054,0.2054,0.2053,0.2096,0.2099,0.2101,0.2103,0.2089,0.2087,0.2084,0.202,0,0,0.2076,0.2074,0,0,0,0,0,0,0,0,0.2096,0.2093,0.2099,0.21,0.2101,0.2082,0.206,0.2043,0.2096,0.2098,0.2102,0.2105,0.2086,0.2084,0.2072,0.2019,0.2018,0.2075,0.2074,0.2073,0.2072,0,0,0,0,0,0,0,0.2097,0.2094,0.2071,0.2098,0.21,0.209,0.209,0.2057,0.2079,0.2098,0.2101,0.2098,0.2087,0.2075,0.2072,0.2018,0.2075,0.2073,0.2071,0.207,0.205,0.2051,0,0,0,0,0,0,0.2102,0.2096,0.2072,0.207,0.2105,0.2088,0.2088,0.2085,0.2079,0.208,0.2096,0.2101,0.2078,0.2075,0.2072,0.2122,0.2073,0.207,0.2068,0.2049,0.205,0.2051,0,0,0,0,0,0,0.2103,0.21,0.2073,0.2083,0.2079,0.2085,0.2082,0.2084,0.2101,0.2078,0.208,0.2116,0.208,0.2076,0.2068,0.2117,0.2069,0.2066,0.2048,0.2049,0.2051,0.2141,0,0,0,0,0,0,0.2104,0.2101,0.2106,0.2083,0.2079,0.2059,0.2079,0.2081,0.2094,0.21,0.2094,0.2094,0.2081,0.2072,0.2065,0.2113,0.2064,0.2046,0.2048,0.205,0.2137,0.2145,0.2153,0,0,0,0,0,0.2105,0.2079,0.2106,0.2104,0.2084,0.2059,0.2056,0.2068,0.2093,0.2094,0.2099,0.2096,0.2082,0.2069,0.2061,0.211,0.2045,0.2048,0.205,0.2133,0.2144,0.2153,0,0,0,0,0,0,0.21,0.2081,0.211,0.2085,0.209,0.2068,0.2056,0.2077,0.2079,0.209,0.2086,0.2084,0.2101,0.208,0.2067,0.2111,0.2072,0.2073,0.2138,0.2148,0.2156,0.2257,0.2062,0,0,0,0,0,0.2102,0.2076,0.208,0.2065,0.2065,0.2073,0.2068,0.2081,0.2075,0.2081,0.2082,0.2087,0.2096,0.2103,0.2089,0.2094,0.2146,0.2127,0.2135,0.2142,0.2219,0.2343,0.2372,0.206,0.206,0.206,0,0,0.2087,0.2082,0.2065,0.2062,0.2062,0.2066,0.2075,0.2066,0.2089,0.2074,0.2096,0.2101,0.2099,0.2119,0.2128,0.2116,0.2242,0.2145,0.2152,0.2227,0.2349,0.2381,0.2409,0.2061,0.2061,0.2061,0,0,0.2049,0.2054,0.2031,0.2038,0.2047,0.2054,0.2063,0.2064,0.2087,0.2095,0.2115,0.2177,0.2134,0.2198,0.2211,0.2257,0.2274,0.2225,0.2362,0.2479,0.2508,0.2534,0.2582,0.2612,0.2241,0.2241,0.2241,0,0.2033,0.2039,0.2022,0.2022,0.2044,0.2058,0.2076,0.208,0.2088,0.2153,0.2112,0.2215,0.2198,0.2324,0.2344,0.2289,0.2326,0.2321,0.2497,0.2524,0.255,0.2593,0.2625,0.2246,0.2245,0.2245,0.2244,0,0.2,0.2021,0.2004,0.2026,0.2038,0.2045,0.2071,0.2111,0.2145,0.2194,0.2314,0.232,0.2422,0.2406,0.2385,0.2568,0.2521,0.2485,0.2484,0.2588,0.2623,0.2656,0.2252,0.2251,0.2249,0.2248,0,0,0.1933,0.1972,0.1977,0.2047,0.2057,0.2087,0.2122,0.2219,0.2336,0.2352,0.2511,0.2559,0.2634,0.2661,0.2666,0.2772,0.2941,0.2716,0.272,0.2787,0.3164,0.2999,0.3017,0.2933,0.294,0.2946,0.3095,0,0.1933,0.1972,0.198,0.2064,0.2114,0.2162,0.2227,0.232,0.2396,0.2535,0.2625,0.2739,0.2702,0.2775,0.2887,0.2927,0.304,0.2903,0.3037,0.3041,0.2904,0.3055,0.28,0.2903,0.3126,0.3132,0.3135,0,0.1941,0.1974,0.2054,0.2194,0.2222,0.2284,0.2482,0.2531,0.2705,0.2764,0.2923,0.2969,0.3148,0.3071,0.3287,0.3194,0.3224,0.3241,0.3246,0.311,0.2941,0.2845,0.2952,0.3189,0.3185,0.3181,0.3177,0,0.2006,0.2062,0.2158,0.2189,0.2309,0.2412,0.2489,0.2654,0.274,0.2939,0.3037,0.3227,0.3332,0.3429,0.3444,0.3393,0.3634,0.3553,0.3446,0.3429,0.3257,0.3213,0.3757,0.3757,0.3757,0.3756,0.3756,0,0.2059,0.2162,0.2223,0.2295,0.2451,0.2514,0.2707,0.2811,0.2962,0.3098,0.3192,0.332,0.3437,0.3544,0.3544,0.3588,0.3722,0.3542,0.3501,0.3265,0.3223,0.3508,0.3477,0.3762,0.376,0.3759,0.3758,0,0.2194,0.2212,0.2349,0.2465,0.2505,0.2644,0.2777,0.2904,0.3048,0.3219,0.3278,0.3446,0.3559,0.3617,0.3756,0.3712,0.3752,0.3728,0.3401,0.332,0.3444,0.3416,0.3671,0.3668,0.3665,0.3662,0.366,0,0.2292,0.2364,0.2465,0.2509,0.2585,0.2733,0.2814,0.2941,0.3035,0.3274,0.3352,0.3522,0.3574,0.3685,0.3636,0.3623,0.3697,0.3398,0.328,0.3524,0.3458,0.3434,0.341,0.3061,0.3054,0.3049,0.3044,0,0.2455,0.2487,0.2556,0.2606,0.2697,0.2773,0.2895,0.2954,0.3105,0.3216,0.3356,0.3417,0.3522,0.3385,0.3361,0.3313,0.3369,0.328,0.3707,0.3092,0.2953,0.2885,0.2882,0.2994,0.2999,0.3003,0.3006,0.3008,0.2555,0.2592,0.26,0.2656,0.2744,0.2766,0.2773,0.286,0.2928,0.2995,0.3168,0.3153,0.3203,0.3,0.2913,0.2865,0.3073,0.2967,0.2984,0.3007,0.288,0.2741,0.2716,0.2719,0.2722,0.2725,0.2727,0,0.2532,0.2533,0.2607,0.2609,0.2632,0.2709,0.2763,0.268,0.2657,0.2772,0.2787,0.2555,0.2474,0.2533,0.2392,0.2389,0.2363,0.2299,0.2265,0.2316,0.2362,0.2201,0.1858,0.1855,0.1852,0.1849,0,0,0.2495,0.2459,0.2446,0.2418,0.2463,0.2414,0.2395,0.2322,0.2333,0.2204,0.2191,0.2304,0.2466,0.2118,0.2077,0.1961,0.2116,0.1881,0.2584,0.2596,0.2638,0.2759,0.2571,0,0,0,0,0]},{"header":{"parameterUnit":"m.s-1","parameterCategory":2,"la1":30.2991,"la2":30.254,"lo1":-89.0895,"lo2":-89.0444,"dy":0.0017,"dx":0.0017,"nx":28,"ny":28,"refTime":"2024-05-27T21:00:00:Z","depth":"2","parameterNumber":3,"parameterNumberName":"V-component_of_CURRENTS"},"data":[0,0,0,0,0,0,0,0,0,0,0,0,0,0,0,0,0,0,0,0,0,0,0,0,0,0,0,0,0,0,0,0,0,0,0,0,0,0,0,0,0,0,0,0,0,0,0,0,0,0,0,0,0,0,0,0,0,0,-0.0563,-0.0565,0,-0.0673,-0.0674,-0.0675,-0.0741,-0.0741,-0.0742,-0.0742,-0.0874,-0.0877,-0.088,0,0,0,0,0,0,0,0,0,0,0,0,0,-0.0382,-0.0385,-0.0563,-0.0565,-0.0566,-0.0673,-0.0674,-0.0675,-0.0741,-0.0741,-0.0742,-0.0742,-0.0873,-0.0876,-0.088,0,0,0,0,0,0,0,0,0,0,0,0,0,-0.0471,-0.0386,-0.0563,-0.0613,-0.0619,-0.0672,-0.0674,-0.0676,-0.0741,-0.0741,-0.0742,-0.0743,-0.0871,-0.0876,-0.088,-0.0895,0,0,-0.0895,-0.0897,0,0,0,0,0,0,0,0,-0.0466,-0.0478,-0.0604,-0.0609,-0.0616,-0.0695,-0.0658,-0.0751,-0.074,-0.0692,-0.0742,-0.0743,-0.0817,-0.0826,-0.0842,-0.0901,-0.0907,-0.0895,-0.0898,-0.09,-0.0901,0,0,0,0,0,0,0,-0.046,-0.0473,-0.0605,-0.0606,-0.0613,-0.062,-0.0634,-0.0676,-0.0748,-0.0697,-0.0702,-0.0717,-0.082,-0.0837,-0.0846,-0.0909,-0.0895,-0.0899,-0.0902,-0.0904,-0.1022,-0.1022,0,0,0,0,0,0,-0.0451,-0.0468,-0.0601,-0.0608,-0.0543,-0.0623,-0.0638,-0.0668,-0.0748,-0.0761,-0.0716,-0.0719,-0.0829,-0.084,-0.0851,-0.0884,-0.09,-0.0904,-0.0907,-0.1021,-0.1022,-0.1022,0,0,0,0,0,0,-0.0447,-0.0463,-0.0597,-0.054,-0.0558,-0.0626,-0.0658,-0.067,-0.0705,-0.0763,-0.0776,-0.0742,-0.083,-0.0844,-0.0893,-0.089,-0.0906,-0.091,-0.1021,-0.1021,-0.1022,-0.0944,0,0,0,0,0,0,-0.0442,-0.0461,-0.0488,-0.0541,-0.0562,-0.0628,-0.0658,-0.0671,-0.0712,-0.0718,-0.0789,-0.0801,-0.0832,-0.0886,-0.0897,-0.0896,-0.0914,-0.102,-0.1021,-0.1022,-0.0946,-0.0942,-0.0938,0,0,0,0,0,-0.0435,-0.0462,-0.0489,-0.0506,-0.0595,-0.0628,-0.0639,-0.0687,-0.0713,-0.0722,-0.0771,-0.0799,-0.0899,-0.0889,-0.0903,-0.0903,-0.102,-0.1021,-0.1022,-0.0948,-0.0943,-0.0939,0,0,0,0,0,0,-0.0415,-0.0474,-0.0504,-0.0555,-0.0589,-0.064,-0.0661,-0.0693,-0.0739,-0.0753,-0.0804,-0.0819,-0.0864,-0.0897,-0.0886,-0.0942,-0.0964,-0.0968,-0.0904,-0.0899,-0.0896,-0.082,-0.0918,0,0,0,0,0,-0.0419,-0.0451,-0.0504,-0.0548,-0.0561,-0.0613,-0.0639,-0.0669,-0.0714,-0.0736,-0.079,-0.0841,-0.0875,-0.0898,-0.0943,-0.097,-0.0951,-0.0982,-0.0977,-0.0974,-0.0924,-0.0861,-0.0845,-0.1025,-0.1025,-0.1025,0,0,-0.0428,-0.0464,-0.0487,-0.0544,-0.0576,-0.0591,-0.063,-0.0666,-0.0684,-0.0743,-0.0794,-0.0838,-0.0883,-0.0913,-0.0936,-0.094,-0.0928,-0.0975,-0.0971,-0.0921,-0.086,-0.0841,-0.0825,-0.1025,-0.1025,-0.1025,0,0,-0.0431,-0.0486,-0.0498,-0.0517,-0.0561,-0.059,-0.06,-0.0657,-0.0686,-0.0736,-0.0775,-0.0796,-0.0889,-0.0886,-0.0901,-0.0901,-0.0915,-0.0947,-0.0855,-0.0797,-0.0779,-0.0764,-0.0769,-0.0754,-0.0936,-0.0936,-0.0936,0,-0.044,-0.0464,-0.0506,-0.051,-0.0522,-0.0585,-0.0584,-0.0622,-0.0693,-0.0686,-0.0748,-0.0796,-0.0857,-0.082,-0.0832,-0.0884,-0.0875,-0.0867,-0.0784,-0.0768,-0.0753,-0.0762,-0.0747,-0.0932,-0.0932,-0.0933,-0.0933,0,-0.0427,-0.0455,-0.0459,-0.0485,-0.0501,-0.0516,-0.0556,-0.058,-0.0633,-0.0653,-0.0655,-0.0715,-0.0712,-0.0763,-0.0805,-0.0731,-0.0772,-0.0789,-0.078,-0.0729,-0.0745,-0.073,-0.0927,-0.0928,-0.0929,-0.093,0,0,-0.0438,-0.0447,-0.0454,-0.0435,-0.0485,-0.0481,-0.0504,-0.0504,-0.0463,-0.0547,-0.0478,-0.056,-0.0556,-0.0569,-0.0613,-0.0583,-0.052,-0.0639,-0.0638,-0.0616,-0.0426,-0.0521,-0.0515,-0.0516,-0.0511,-0.0508,-0.0498,0,-0.0419,-0.0392,-0.0417,-0.0396,-0.0377,-0.0414,-0.0403,-0.0408,-0.0427,-0.0382,-0.0408,-0.0378,-0.0492,-0.0465,-0.0452,-0.0488,-0.0468,-0.0523,-0.0502,-0.0502,-0.0566,-0.0494,-0.0479,-0.0472,-0.0483,-0.0481,-0.0479,0,-0.0396,-0.0375,-0.0333,-0.0295,-0.0288,-0.0273,-0.0215,-0.0214,-0.0169,-0.017,-0.0132,-0.0156,-0.0118,-0.0219,-0.022,-0.025,-0.0318,-0.0368,-0.0368,-0.0453,-0.0564,-0.0518,-0.0444,-0.0454,-0.0456,-0.0458,-0.046,0,-0.0329,-0.0318,-0.0267,-0.026,-0.0228,-0.0188,-0.0168,-0.0128,-0.0071,0.0005,0.0079,0.0084,0.013,0.0066,-0.0089,-0.0124,-0.0107,-0.0163,-0.0315,-0.0326,-0.0302,-0.0317,-0.0131,-0.0131,-0.0131,-0.0131,-0.0131,0,-0.0283,-0.0241,-0.0213,-0.0172,-0.0066,-0.0083,0.004,0.0068,0.0154,0.027,0.023,0.0328,0.0213,0.0176,0.0016,-0.0112,-0.0022,-0.0261,-0.0298,-0.0289,-0.0302,-0.0272,-0.0288,-0.0131,-0.0131,-0.0131,-0.0131,0,-0.0194,-0.0198,-0.0109,-0.0051,-0.0021,0.0074,0.018,0.0272,0.0336,0.0497,0.0541,0.0557,0.0483,0.0304,0.0191,0.0042,-0.0091,-0.0169,-0.0197,-0.0237,-0.0379,-0.0393,-0.0286,-0.0288,-0.029,-0.0292,-0.0294,0,-0.0132,-0.0083,0.0012,0.0076,0.0117,0.0232,0.0315,0.0377,0.0467,0.0629,0.072,0.0711,0.0685,0.0452,0.0169,-0.0106,-0.0145,-0.0244,-0.0299,-0.0332,-0.0379,-0.0389,-0.0399,-0.0263,-0.0264,-0.0265,-0.0266,0,-0.0006,0.0024,0.0094,0.0202,0.03,0.042,0.0531,0.063,0.0714,0.0835,0.0955,0.0958,0.0741,0.0476,0.0093,-0.0095,-0.0204,-0.0274,-0.0219,-0.025,-0.0315,-0.0362,-0.037,-0.0274,-0.0273,-0.0273,-0.0272,-0.0272,0.0094,0.0149,0.0194,0.0303,0.0423,0.0539,0.0649,0.0756,0.089,0.106,0.1066,0.1092,0.0828,0.0325,0.0013,-0.03,-0.0299,-0.0383,-0.0376,-0.037,-0.0392,-0.0459,-0.0452,-0.0453,-0.0453,-0.0453,-0.0453,0,0.0136,0.0156,0.0269,0.0362,0.0488,0.0548,0.073,0.0849,0.0994,0.1139,0.1211,0.0967,0.0677,0.0365,-0.0105,-0.0388,-0.0388,-0.0471,-0.0394,-0.0386,-0.0378,-0.0398,-0.0461,-0.0462,-0.0462,-0.0462,0,0,0.0141,0.0181,0.02,0.0345,0.0455,0.0631,0.0749,0.0953,0.1094,0.12,0.1225,0.1196,0.0811,0.0474,0.0071,-0.018,-0.021,-0.0236,-0.0205,-0.0061,-0.0048,-0.0313,-0.0333,0,0,0,0,0]}],[{"header":{"parameterUnit":"m.s-1","parameterCategory":2,"la1":30.2991,"la2":30.254,"lo1":-89.0895,"lo2":-89.0444,"dy":0.0017,"dx":0.0017,"nx":28,"ny":28,"refTime":"2024-05-27T21:00:00:Z","depth":"4","parameterNumber":2,"parameterNumberName":"U-component_of_CURRENTS"},"data":[0,0,0,0,0,0,0,0,0,0,0,0,0,0,0,0,0,0,0,0,0,0,0,0,0,0,0,0,0,0,0,0,0,0,0,0,0,0,0,0,0,0,0,0,0,0,0,0,0,0,0,0,0,0,0,0,0,0,0.0758,0.0758,0,0.0824,0.0825,0.0825,0.0873,0.0873,0.0874,0.0875,0.0902,0.0902,0.0902,0,0,0,0,0,0,0,0,0,0,0,0,0,0.0722,0.0722,0.0757,0.0759,0.076,0.0824,0.0825,0.0825,0.0873,0.0873,0.0874,0.0875,0.0902,0.0902,0.0902,0,0,0,0,0,0,0,0,0,0,0,0,0,0.0755,0.0722,0.0757,0.0793,0.0797,0.0824,0.0825,0.0826,0.0872,0.0873,0.0874,0.0875,0.0902,0.0902,0.0902,0.0884,0,0,0.0903,0.0903,0,0,0,0,0,0,0,0,0.0753,0.0756,0.0787,0.0791,0.0795,0.0844,0.0823,0.0844,0.0872,0.0841,0.0875,0.0876,0.088,0.0882,0.0889,0.0885,0.0886,0.0903,0.0903,0.0903,0.0903,0,0,0,0,0,0,0,0.0751,0.0754,0.0781,0.0788,0.0793,0.0824,0.0829,0.0827,0.0851,0.0843,0.0848,0.086,0.0882,0.0888,0.089,0.0886,0.0903,0.0903,0.0903,0.0903,0.098,0.0982,0,0,0,0,0,0,0.0745,0.0751,0.0779,0.0783,0.078,0.0824,0.0829,0.0825,0.0852,0.0858,0.0859,0.0862,0.0888,0.0889,0.0891,0.0949,0.0903,0.0903,0.0903,0.0978,0.098,0.0982,0,0,0,0,0,0,0.0743,0.0746,0.0776,0.0772,0.0779,0.0823,0.0818,0.0826,0.086,0.0865,0.087,0.0889,0.0888,0.089,0.0919,0.0947,0.0903,0.0903,0.0976,0.0979,0.0981,0.1015,0,0,0,0,0,0,0.0742,0.0744,0.0747,0.0771,0.0779,0.08,0.0818,0.0826,0.0865,0.087,0.0891,0.0893,0.0889,0.0919,0.0919,0.0947,0.0903,0.0973,0.0977,0.098,0.1011,0.1019,0.1025,0,0,0,0,0,0.074,0.074,0.0746,0.0751,0.0778,0.0801,0.0807,0.0841,0.0866,0.0876,0.0904,0.0894,0.0943,0.092,0.092,0.0948,0.0971,0.0976,0.098,0.1008,0.1017,0.1025,0,0,0,0,0,0,0.0728,0.0745,0.0753,0.0759,0.0782,0.081,0.083,0.0854,0.0885,0.0899,0.0907,0.091,0.095,0.0947,0.0922,0.0986,0.096,0.0964,0.0982,0.099,0.0997,0.1041,0.0904,0,0,0,0,0,0.0724,0.0728,0.075,0.0757,0.077,0.0805,0.0824,0.0847,0.0875,0.0892,0.091,0.0937,0.0963,0.0975,0.099,0.1013,0.1058,0.1038,0.1045,0.105,0.109,0.1164,0.1182,0.0997,0.0996,0.0996,0,0,0.0719,0.0734,0.0734,0.0756,0.0779,0.0805,0.0819,0.0853,0.0887,0.0887,0.094,0.0958,0.0977,0.1011,0.1029,0.1014,0.113,0.1056,0.106,0.1097,0.1171,0.1189,0.1205,0.0999,0.0999,0.0998,0,0,0.0718,0.0727,0.0733,0.0758,0.0798,0.0818,0.0834,0.0874,0.0904,0.095,0.0969,0.1013,0.1041,0.1067,0.1083,0.1138,0.1164,0.114,0.1205,0.1276,0.1293,0.1307,0.1398,0.142,0.1141,0.1141,0.1141,0,0.0715,0.0727,0.0741,0.0766,0.0797,0.0829,0.0858,0.0888,0.0936,0.0972,0.0976,0.1077,0.1076,0.1146,0.1171,0.1153,0.121,0.1164,0.1286,0.1301,0.1315,0.1405,0.1429,0.1143,0.1143,0.1143,0.1143,0,0.0719,0.0744,0.0756,0.0794,0.0825,0.0857,0.09,0.0935,0.0982,0.1026,0.1116,0.1141,0.1213,0.121,0.1209,0.1312,0.1326,0.1283,0.1262,0.1336,0.1425,0.145,0.1146,0.1146,0.1145,0.1145,0,0,0.0673,0.0743,0.0752,0.0782,0.0849,0.087,0.093,0.0994,0.1052,0.1117,0.1215,0.1269,0.1316,0.1341,0.1349,0.1409,0.1546,0.1401,0.1404,0.1489,0.174,0.1567,0.1577,0.1525,0.1529,0.1533,0.1764,0,0.0678,0.0728,0.0768,0.0826,0.0856,0.0913,0.0974,0.1041,0.1104,0.1199,0.1274,0.1371,0.1356,0.1411,0.1472,0.153,0.1613,0.149,0.166,0.1667,0.15,0.16,0.1546,0.1783,0.1789,0.1793,0.1796,0,0.0669,0.0708,0.0766,0.0856,0.0878,0.0925,0.1027,0.1091,0.1221,0.1287,0.1404,0.147,0.1606,0.1569,0.175,0.1678,0.1737,0.1772,0.178,0.163,0.1539,0.1693,0.1841,0.1837,0.1834,0.1831,0.1828,0,0.0626,0.0707,0.0756,0.0786,0.0889,0.0938,0.101,0.1126,0.1207,0.1372,0.1449,0.1609,0.1729,0.1817,0.1897,0.1852,0.2082,0.2014,0.1927,0.1917,0.1987,0.1969,0.2163,0.2163,0.2163,0.2162,0.2161,0,0.0613,0.0647,0.0744,0.077,0.0856,0.0937,0.1051,0.1135,0.129,0.1404,0.1514,0.1626,0.1802,0.193,0.1972,0.2033,0.2153,0.1985,0.1971,0.1996,0.1977,0.2005,0.1984,0.2171,0.2169,0.2167,0.2166,0,0.0553,0.0619,0.0666,0.0779,0.0841,0.0899,0.1086,0.1155,0.1302,0.1455,0.1528,0.1724,0.1883,0.2,0.2182,0.2129,0.2189,0.2178,0.2248,0.2226,0.1971,0.195,0.2131,0.2127,0.2123,0.212,0.2118,0,0.0527,0.0547,0.0664,0.071,0.0769,0.0892,0.0988,0.1165,0.1237,0.1485,0.1542,0.1771,0.1878,0.2017,0.2127,0.2223,0.2178,0.2218,0.2059,0.2004,0.1973,0.1956,0.1939,0.2113,0.2112,0.2111,0.211,0,0.0462,0.0499,0.0539,0.0647,0.074,0.0842,0.0981,0.105,0.1254,0.1391,0.155,0.1662,0.1837,0.1966,0.2059,0.2099,0.2186,0.2181,0.2187,0.2038,0.1983,0.1952,0.194,0.2098,0.21,0.2101,0.2101,0,0.0405,0.0415,0.0482,0.0572,0.0667,0.0752,0.0855,0.0979,0.1107,0.1365,0.1436,0.1641,0.1846,0.1905,0.1976,0.2012,0.1973,0.1903,0.1923,0.1937,0.1754,0.1648,0.1688,0,0,0,0,0,0.0359,0.0375,0.0422,0.0509,0.0582,0.0662,0.0824,0.0922,0.1136,0.1211,0.1324,0.1467,0.1618,0.1727,0.1727,0.1862,0.1957,0.1849,0.1879,0.2032,0.2046,0.1839,0,0,0,0,0,0,0.0326,0.036,0.0388,0.0425,0.0476,0.0575,0.0677,0.0828,0.0878,0.1099,0.1191,0.1352,0.1513,0.1601,0.1689,0.1719,0.1703,0.1979,0.1975,0.2024,0.2036,0.2048,0.184,0,0,0,0,0]},{"header":{"parameterUnit":"m.s-1","parameterCategory":2,"la1":30.2991,"la2":30.254,"lo1":-89.0895,"lo2":-89.0444,"dy":0.0017,"dx":0.0017,"nx":28,"ny":28,"refTime":"2024-05-27T21:00:00:Z","depth":"4","parameterNumber":3,"parameterNumberName":"V-component_of_CURRENTS"},"data":[0,0,0,0,0,0,0,0,0,0,0,0,0,0,0,0,0,0,0,0,0,0,0,0,0,0,0,0,0,0,0,0,0,0,0,0,0,0,0,0,0,0,0,0,0,0,0,0,0,0,0,0,0,0,0,0,0,0,0.0409,0.0409,0,0.0419,0.0419,0.0419,0.0391,0.039,0.039,0.0389,0.0387,0.0388,0.0389,0,0,0,0,0,0,0,0,0,0,0,0,0,0.0289,0.0292,0.0409,0.0409,0.0409,0.0419,0.0419,0.0419,0.0391,0.039,0.0389,0.0388,0.0387,0.0388,0.0389,0,0,0,0,0,0,0,0,0,0,0,0,0,0.0325,0.0293,0.0409,0.0397,0.0396,0.0419,0.0419,0.0419,0.0392,0.039,0.0389,0.0388,0.0387,0.0388,0.0389,0.0422,0,0,0.0392,0.0393,0,0,0,0,0,0,0,0,0.0323,0.0329,0.0398,0.0398,0.0396,0.0402,0.0376,0.0419,0.0392,0.0393,0.0389,0.0387,0.0392,0.0393,0.0398,0.0422,0.0422,0.0392,0.0393,0.0394,0.0394,0,0,0,0,0,0,0,0.0321,0.0328,0.0413,0.0399,0.0397,0.0364,0.0368,0.0384,0.04,0.0393,0.0391,0.0392,0.0391,0.0397,0.0397,0.0422,0.0392,0.0393,0.0394,0.0394,0.0417,0.0416,0,0,0,0,0,0,0.0325,0.0327,0.0413,0.0413,0.0355,0.0367,0.0372,0.0402,0.04,0.0398,0.0393,0.0391,0.0395,0.0396,0.0397,0.0409,0.0394,0.0395,0.0395,0.0417,0.0417,0.0416,0,0,0,0,0,0,0.0323,0.0334,0.0412,0.0368,0.0375,0.0371,0.0404,0.0403,0.0411,0.04,0.0398,0.0404,0.0394,0.0396,0.0415,0.041,0.0395,0.0396,0.0417,0.0417,0.0416,0.045,0,0,0,0,0,0,0.032,0.0334,0.0361,0.037,0.0378,0.0438,0.0406,0.0404,0.0414,0.0411,0.0409,0.0407,0.0393,0.0413,0.0416,0.0411,0.0397,0.0417,0.0417,0.0417,0.0449,0.0451,0.0453,0,0,0,0,0,0.0317,0.037,0.0364,0.0374,0.0416,0.044,0.0442,0.0432,0.0416,0.0433,0.0423,0.0407,0.0412,0.0416,0.0418,0.0413,0.0417,0.0417,0.0417,0.0448,0.0451,0.0453,0,0,0,0,0,0,0.0345,0.0373,0.0365,0.0428,0.0433,0.0435,0.0457,0.0443,0.045,0.0448,0.0427,0.0426,0.0433,0.0425,0.0428,0.0415,0.0404,0.0405,0.0427,0.043,0.0431,0.0414,0.0398,0,0,0,0,0,0.0362,0.0405,0.0412,0.0463,0.0469,0.0462,0.0471,0.0463,0.0467,0.0469,0.0462,0.0449,0.0436,0.0436,0.0432,0.0445,0.0389,0.0435,0.0437,0.0439,0.0425,0.0318,0.0309,0.0416,0.0416,0.0416,0,0,0.039,0.0408,0.0435,0.047,0.0475,0.0486,0.0465,0.0491,0.0491,0.047,0.0482,0.0467,0.0442,0.0444,0.0444,0.0437,0.0386,0.0439,0.044,0.0425,0.0317,0.0306,0.0297,0.0416,0.0416,0.0416,0,0,0.0445,0.0481,0.0517,0.0523,0.0532,0.0526,0.0534,0.0539,0.0534,0.0548,0.0514,0.0494,0.0502,0.0463,0.0446,0.0459,0.0402,0.046,0.0456,0.0354,0.0343,0.0333,0.0277,0.0261,0.0458,0.0458,0.0458,0,0.0469,0.0514,0.053,0.0549,0.0552,0.0543,0.0557,0.0559,0.0565,0.0553,0.0557,0.0508,0.05,0.0452,0.0454,0.0461,0.0406,0.0453,0.0354,0.0343,0.0332,0.0275,0.0258,0.0459,0.0459,0.0459,0.0459,0,0.0527,0.0557,0.0582,0.0596,0.0605,0.0627,0.0617,0.0622,0.0612,0.0594,0.0563,0.0538,0.0494,0.0489,0.0482,0.0402,0.0392,0.037,0.0346,0.0323,0.0266,0.0247,0.0462,0.0461,0.0461,0.046,0,0,0.0583,0.0614,0.0619,0.0616,0.0627,0.0638,0.0643,0.0629,0.0612,0.0603,0.0557,0.0534,0.05,0.0476,0.0447,0.0369,0.0268,0.0344,0.0338,0.0285,0.0063,0.0095,0.0078,0.0221,0.0217,0.0214,0.0064,0,0.0608,0.0643,0.0654,0.0672,0.0678,0.0669,0.0672,0.0658,0.0636,0.0597,0.0538,0.05,0.0499,0.0471,0.0391,0.029,0.0215,0.0313,0.0095,0.009,0.0117,0.0055,0.0202,0.005,0.0046,0.0042,0.004,0,0.0633,0.0652,0.0678,0.0683,0.0688,0.0702,0.0678,0.0682,0.0627,0.0605,0.0539,0.049,0.0386,0.0383,0.0186,0.0245,0.0159,0.0085,0.0076,0.0074,0.0085,0.007,0.0005,0.0008,0.001,0.0013,0.0015,0,0.062,0.0657,0.0674,0.068,0.0696,0.0702,0.0711,0.0682,0.0675,0.0596,0.056,0.0438,0.0364,0.0222,0.0099,0.0121,-0.0125,-0.012,-0.017,-0.0167,-0.0164,-0.0152,-0.0275,-0.0275,-0.0275,-0.0275,-0.0274,0,0.0615,0.0625,0.0676,0.0681,0.0705,0.0714,0.0721,0.0706,0.0672,0.0646,0.0562,0.0494,0.0312,0.0168,0.006,-0.0111,-0.0163,-0.0192,-0.0223,-0.0138,-0.0123,-0.0175,-0.0162,-0.028,-0.0279,-0.0278,-0.0277,0,0.0575,0.061,0.0632,0.0675,0.0696,0.0711,0.075,0.0748,0.0716,0.0665,0.0636,0.0497,0.0318,0.0154,-0.0086,-0.0157,-0.0322,-0.0362,-0.0242,-0.0259,-0.0281,-0.0264,-0.0454,-0.0455,-0.0455,-0.0456,-0.0456,0,0.0548,0.0562,0.0633,0.0663,0.0688,0.0728,0.0758,0.0767,0.0761,0.0672,0.0635,0.0462,0.0359,0.0051,-0.0114,-0.0341,-0.0351,-0.0434,-0.0375,-0.0299,-0.0309,-0.0291,-0.0274,-0.0457,-0.0457,-0.0457,-0.0457,0,0.0504,0.0543,0.0572,0.0647,0.0696,0.0742,0.0782,0.0781,0.0772,0.0735,0.0619,0.0466,0.0265,0.0053,-0.0123,-0.0277,-0.0389,-0.0439,-0.0439,-0.0383,-0.0304,-0.031,-0.0292,-0.0459,-0.0459,-0.0458,-0.0458,0,0.0482,0.0502,0.057,0.0628,0.0689,0.0741,0.0766,0.0766,0.0764,0.0681,0.0638,0.0442,0.032,0.0085,-0.0079,-0.023,-0.0256,-0.029,-0.0298,-0.0298,-0.0194,-0.0066,-0.02,0,0,0,0,0,0.0469,0.0506,0.0552,0.0626,0.0681,0.0726,0.0775,0.0794,0.0783,0.0711,0.0683,0.051,0.0255,0.0136,-0.0011,-0.0083,-0.0283,-0.026,-0.0326,-0.0468,-0.0466,-0.0366,0,0,0,0,0,0,0.0469,0.0518,0.0546,0.0612,0.0657,0.0726,0.0761,0.0759,0.0725,0.0687,0.0556,0.0481,0.0236,0.0337,-0.0015,-0.0063,-0.0122,-0.0381,-0.0384,-0.0469,-0.0467,-0.0466,-0.0362,0,0,0,0,0]}]]